Location: Ostrava
(49.8330°N, 18.2830°E)
Time: 04:46:24
(UTC+02:00)

Cosmos 2219 Rocket - Visible Passes

Search period start: 01 July 2016 00:00
Search period end: 11 July 2016 00:00
Orbit: 830 x 845 km, 71.0° (Epoch: 30 June)

Date Brightness Start Highest point End Pass type
(mag) Time Alt. Az. Time Alt. Az. Time Alt. Az.
01 Jul 2.8 22:04:54 10° NW 22:10:21 53° WSW 22:15:46 10° S visible
02 Jul 2.7 21:48:32 10° NW 21:54:01 57° WSW 21:59:30 10° S visible
03 Jul 2.6 21:32:11 10° NW 21:37:42 61° WSW 21:43:12 10° SSE visible
04 Jul 4.7 23:03:00 10° W 23:04:13 11° W 23:05:26 10° WSW visible
05 Jul 4.7 22:46:05 10° WNW 22:47:57 12° W 22:49:50 10° WSW visible
06 Jul 4.6 22:29:21 10° WNW 22:31:41 13° W 22:34:02 10° WSW visible
07 Jul 4.6 22:12:42 10° WNW 22:15:25 14° W 22:18:08 10° SW visible
08 Jul 4.6 21:56:07 10° WNW 21:59:09 15° W 22:02:10 10° SW visible
09 Jul 4.6 21:39:35 10° WNW 21:42:52 16° W 21:46:10 10° SW visible
